• MPC Preparation (Info)

  • MPEC 2016-N140: 2010 TV191

    The following Minor Planet Electronic Circular may be linked-to from your own Web pages, but must not otherwise be redistributed electronically.

    A form allowing access to any MPEC is at the bottom of this page.


    Read MPEC 2016-N139 Read MPEC 2016-N141


    M.P.E.C. 2016-N140                               Issued 2016 July 15, 20:06 UT
    
         The Minor Planet Electronic Circulars contain information on unusual
             minor planets and routine data on comets.  They are published
        on behalf of Division F of the International Astronomical Union by the
              Minor Planet Center, Smithsonian Astrophysical Observatory,
                              Cambridge, MA 02138, U.S.A.
    
                 Prepared using the Tamkin Foundation Computer Network
    
                                  MPC@CFA.HARVARD.EDU
                URL https://www.minorplanetcenter.net/    ISSN 1523-6714
    
                                      2010 TV191
    
    Observations:
         K10TJ1V* C2010 10 09.43284 03 24 34.511+12 25 30.84         23.1 wLEN140F51
         K10TJ1V  C2010 10 09.44895 03 24 34.432+12 25 30.41         22.5 wLEN140F51
         K10TJ1V  C2010 10 09.46507 03 24 34.331+12 25 29.99         22.5 wLEN140F51
         K10TJ1V  C2010 10 09.48196 03 24 34.232+12 25 29.47         22.7 wLEN140F51
         K10TJ1V  C2010 11 08.48358 03 21 21.044+12 08 41.16         22.7 wLEN140F51
         K10TJ1V  C2010 11 08.49631 03 21 20.953+12 08 40.75         23.0 wLEN140F51
         K10TJ1V  C2010 11 08.51051 03 21 20.835+12 08 40.23         22.5 wLEN140F51
         K10TJ1V  C2012 10 21.55072 03 42 31.580+12 39 39.26         22.5 wLEN140F51
         K10TJ1V  C2012 10 21.56678 03 42 31.496+12 39 38.77         22.6 wLEN140F51
         K10TJ1V  C2012 10 21.58282 03 42 31.383+12 39 38.15         22.4 wLEN140F51
         K10TJ1V  C2012 10 21.59895 03 42 31.277+12 39 37.63         22.3 wLEN140F51
         K10TJ1V  C2014 08 31.55295 04 04 04.021+13 17 21.32         22.6 wLEN140F51
         K10TJ1V  C2014 08 31.56589 04 04 04.028+13 17 21.12         22.7 wLEN140F51
         K10TJ1V  C2014 08 31.57883 04 04 04.034+13 17 20.64         22.8 wLEN140F51
         K10TJ1V  C2014 08 31.59183 04 04 04.032+13 17 20.59         22.6 wLEN140F51
         K10TJ1V  C2014 09 04.56911 04 04 05.696+13 16 06.96         22.8 wLEN140F51
         K10TJ1V  C2014 09 04.58027 04 04 05.703+13 16 06.74         22.9 wLEN140F51
         K10TJ1V  C2014 09 04.59147 04 04 05.701+13 16 06.48         23.0 wLEN140F51
         K10TJ1V  C2014 09 04.60263 04 04 05.695+13 16 06.60         22.8 wLEN140F51
         K10TJ1V  C2014 11 26.30469 03 57 40.436+12 38 52.84         22.1 wLEN140F51
         K10TJ1V  C2014 11 26.31592 03 57 40.345+12 38 52.25         22.4 wLEN140F51
         K10TJ1V  C2014 11 26.33831 03 57 40.181+12 38 51.80         22.3 wLEN140F51
         K10TJ1V  C2015 01 15.32954 03 52 42.140+12 27 37.06         22.4 wLEN140F51
         K10TJ1V  C2015 01 15.34122 03 52 42.108+12 27 37.23         22.3 wLEN140F51
         K10TJ1V  C2015 01 15.35294 03 52 42.049+12 27 37.19         22.5 wLEN140F51
         K10TJ1V  C2015 01 15.36469 03 52 42.015+12 27 37.26         22.3 wLEN140F51
    
    Observer details:
    F51 Pan-STARRS 1, Haleakala.  Observers B. Gibson, T. Goggia, N. Primak,
        A. Schultz, M. Willman.  Measurers K. Chambers, S. Chastel, Y.-T. Chen,
        L. Denneau, H. Flewelling, M. Holman, M. Huber, R. Jedicke, M. Lackner,
        E. Lilly, H.-W. Lin, E. Magnier, M. Micheli, M. Payne, P. Veres,
        R. Wainscoat, C. Waters, R. Weryk.  1.8-m Ritchey-Chretien + CCD.
    
    Orbital elements:
    2010 TV191
    Epoch 2016 July 31.0 TT = JDT 2457600.5                 MPC
    M 184.29291              (2000.0)            P               Q
    n   0.00801425     Peri.   40.52871     -0.48740945     +0.87033659
    a  24.7301879      Node   200.60312     -0.84387120     -0.49021318
    e   0.1328721      Incl.   11.52883     -0.22430654     -0.04696026
    P 122.98           H    7.9           G   0.15           U   2
    Residuals in seconds of arc
    101009 F51  0.1-  0.1-    121021 F51  0.0   0.2-    140904 F51  0.0   0.3+
    101009 F51  0.0   0.0     121021 F51  0.1-  0.2-    141126 F51  0.1+  0.1+
    101009 F51  0.1-  0.1+    140831 F51  0.0   0.1+    141126 F51  0.0   0.2-
    101009 F51  0.2-  0.1+    140831 F51  0.0   0.1+    141126 F51  0.0   0.1-
    101108 F51  0.2+  0.1+    140831 F51  0.0   0.1-    150115 F51  0.1-  0.1-
    101108 F51  0.2+  0.1+    140831 F51  0.2-  0.1+    150115 F51  0.1+  0.1+
    101108 F51  0.0   0.1+    140904 F51  0.0   0.0     150115 F51  0.2-  0.1+
    121021 F51  0.0   0.1-    140904 F51  0.1+  0.0     150115 F51  0.0   0.1+
    121021 F51  0.2+  0.1-    140904 F51  0.1+  0.1-
    
    Ephemeris:
    2010 TV191               a,e,i = 24.73, 0.13, 12                 q = 21.444
    Date    TT    R. A. (2000) Decl.     Delta      r     Elong.  Phase     V
    2016 06 15    04 15 02.7 +13 28 18  28.9549 28.0101    21.2     0.8    22.6
    ...
    2016 06 30    04 17 15.4 +13 31 27  28.8433 28.0098    34.4     1.2    22.6
    ...
    2016 07 08    04 18 20.3 +13 32 28  28.7624 28.0096    41.5     1.4    22.6
    ...
    2016 07 14    04 19 05.5 +13 32 55  28.6931 28.0094    47.0     1.5    22.6
    2016 07 15    04 19 12.7 +13 32 58  28.6808 28.0094    47.9     1.5    22.6
    2016 07 16    04 19 19.9 +13 33 01  28.6684 28.0094    48.8     1.6    22.6
    ...
    2016 07 22    04 20 00.6 +13 33 06  28.5902 28.0092    54.3     1.7    22.6
    ...
    2016 07 30    04 20 49.0 +13 32 48  28.4771 28.0090    61.6     1.8    22.6
    ...
    2016 08 14    04 21 59.3 +13 30 56  28.2437 28.0086    75.6     2.0    22.6
    
    A. U. Tomatic                (C) Copyright 2016 MPC           M.P.E.C. 2016-N140
    

    Read MPEC 2016-N139 Read MPEC 2016-N141


    MPEC number:

    Enter an MPEC number in one of the following forms:

    • 1997-B01 (the full form)
    • J97B01 (the packed version of the full form)
    • B01 (the abbreviated form)